Flag for U.S.A. Weather past 2 weeks in Kansas City, Missouri, U.S.A.

Now
36 °F

Passing clouds.


Feels Like: 30 °F
Forecast: 36 / 47 °F
Wind: 8 mph from North

Location: Kansas City Downtown Airport

Current Time: Mar 27, 2015 at 6:16:45 AM

Latest Report: Mar 27, 2015 at 5:54 AM


Visibility: 10 mi

Pressure: 30.20 "Hg

Humidity: 73%

Dew point: 28 °F

Location of Kansas CityLocation

Historic Weather in Kansas City — Graph

°F

Kansas City temperature yesterday

Maximum temperature yesterday: 52 °F (at 3:54 PM)
Minimum temperature yesterday: 35 °F (at 6:54 AM)
Average temperature yesterday: 44 °F

Past Weeks' High & Low Weather Summary

 TemperatureHumidityPressure
High84 °F (Mar 16, 4:54 PM)100% (Mar 19, 12:54 AM)30.37 "Hg (Mar 19, 12:54 AM)
Low35 °F (Mar 26, 6:54 AM)19% (Mar 13, 3:54 PM)29.78 "Hg (Mar 24, 5:54 PM)
Average53 °F58%30.11 "Hg
* Reported Mar 12 4:56 AM — Mar 27 4:54 AM, Kansas City, Weather by CustomWeather, © 2015

Note: Actual official high and low records may vary slightly from our data, if they occured in-between our weather recording intervals... More about our weather records

Advertising

Kansas City weather history for previous 24 hours

 ConditionsComfort  
Time TempWeatherWind HumidityBarometerVisibility
4:54 AM
Fri, Mar 27
38 °FOvercast.14 mph70%30.18 "Hg10 mi
3:54 AM38 °FMostly cloudy.10 mph79%30.17 "Hg10 mi
2:54 AM39 °FMostly cloudy.10 mph79%30.17 "Hg10 mi
2:02 AM39 °FMostly cloudy.9 mph79%30.16 "Hg10 mi
1:54 AM39 °FMostly cloudy.12 mph79%30.16 "Hg10 mi
12:54 AM40 °FMostly cloudy.9 mph83%30.16 "Hg10 mi
11:54 PM
Thu, Mar 26
41 °FLight rain. Overcast.14 mph80%30.16 "Hg10 mi
10:54 PM45 °FMostly cloudy.14 mph58%30.14 "Hg10 mi
9:54 PM48 °FOvercast.8 mph46%30.11 "Hg10 mi
8:54 PM49 °FMostly cloudy.9 mph41%30.10 "Hg10 mi
7:54 PM49 °FMostly cloudy.6 mph43%30.08 "Hg10 mi
6:54 PM50 °FPartly sunny.3 mph39%30.07 "Hg10 mi
5:54 PM51 °FSunny.5 mph36%30.08 "Hg10 mi
4:54 PM51 °FSunny.No wind36%30.10 "Hg10 mi
3:54 PM52 °FSunny.N/A38%30.11 "Hg10 mi
2:54 PM51 °FSunny.8 mph38%30.14 "Hg10 mi
1:54 PM51 °FSunny.10 mph39%30.16 "Hg10 mi
12:54 PM48 °FSunny.8 mph44%30.17 "Hg10 mi
11:54 AM46 °FSunny.14 mph46%30.20 "Hg10 mi
10:54 AM45 °FSunny.14 mph49%30.22 "Hg10 mi
9:54 AM42 °FSunny.12 mph55%30.23 "Hg10 mi
8:54 AM38 °FSunny.8 mph70%30.23 "Hg10 mi
7:54 AM35 °FClear.5 mph78%30.23 "Hg10 mi
6:54 AM35 °FClear.7 mph78%30.21 "Hg10 mi
Weather by CustomWeather, © 2015

See weather overviewHow to use our weather pages